Location: Newark
(30.0333°N, 31.2167°E)
Time: 19:44:48
(UTC+00:00)

S-56A Canister/Altair - Visible Passes

Search period start: 22 January 2020 00:00
Search period end: 01 February 2020 00:00
Orbit: 634 x 2498 km, 38.9° (Epoch: 22 January)

Date Brightness Start Highest point End Pass type
(mag) Time Alt. Az. Time Alt. Az. Time Alt. Az.
22 Jan 10.6 01:14:22 13° SE 01:14:22 13° SE 01:15:09 10° SE visible
22 Jan 10.0 03:11:49 13° SW 03:12:50 13° SW 03:16:11 10° S visible
22 Jan 9.4 16:12:37 10° SSW 16:19:14 26° SSE 16:23:09 14° E visible
22 Jan 9.2 18:16:38 10° WSW 18:20:36 34° WSW 18:20:36 34° WSW visible
23 Jan 10.1 02:41:12 14° SSW 02:41:12 14° SSW 02:43:49 10° S visible
23 Jan 9.8 15:39:42 10° SSW 15:46:24 23° SE 15:51:28 10° E visible
23 Jan 8.0 17:43:22 10° WSW 17:49:56 68° SW 17:49:56 68° SW visible
24 Jan 10.3 02:10:35 12° S 02:10:35 12° S 02:11:21 10° S visible
24 Jan 7.8 17:10:04 10° SW 17:18:03 74° SSE 17:19:15 57° E visible
25 Jan 8.3 16:36:42 10° SW 16:45:19 65° SSE 16:48:32 29° ENE visible
25 Jan 10.0 18:43:21 10° W 18:45:59 22° WNW 18:45:59 22° WNW visible
26 Jan 8.7 16:03:19 10° SW 16:12:31 58° SSE 16:17:49 15° ENE visible
26 Jan 9.0 18:09:55 10° W 18:15:15 40° WNW 18:15:15 40° WNW visible
27 Jan 8.2 17:36:23 10° W 17:44:05 56° NNW 17:44:29 55° N visible
28 Jan 8.4 17:02:47 10° WSW 17:11:20 64° NNW 17:13:43 38° NE visible
28 Jan 10.6 19:10:29 10° WNW 19:11:09 12° WNW 19:11:09 12° WNW visible
29 Jan 8.5 16:29:07 10° WSW 16:38:31 73° NNW 16:42:55 21° ENE visible
29 Jan 9.8 18:37:05 10° WNW 18:40:22 23° NW 18:40:22 23° NW visible
30 Jan 8.7 15:55:25 10° WSW 16:05:39 81° NNW 16:12:06 11° ENE visible
30 Jan 9.1 18:03:33 10° WNW 18:09:32 36° NNW 18:09:32 36° NNW visible
31 Jan 8.7 17:29:55 10° W 17:37:38 42° NNW 17:38:43 39° N visible
